Location: Fort Worth, Tx
(32.7431°N, 97.3695°W)
Time: 13:42:49
(UTC-04:00)

Transit 2A - Pass Details

Date: 29 February 2024
Orbit: 596 x 956 km, 66.7° (Epoch: 20 April)

Event Time Altitude Azimuth Distance (km) Brightness Sun altitude
Rises 20:48:02 0° 249° (WSW) 2,866 10.2 -17.9°
Reaches altitude 10° 20:51:21 10° 276° (W) 1,938 9.4 -18.6°
Maximum altitude 20:53:34 14° 307° (NW) 1,698 8.6 -19.1°
Drops below altitude 10° 20:55:48 10° 338° (NNW) 1,934 8.4 -19.6°
Sets 20:59:07 0° 5° (N) 2,856 9.0 -20.3°
